Change the Weather History Date:

Thursday, January 3, 2013

  Actual Average (KCLL) Record (KCLL)
Temperature  
Mean Temperature 42 °F 51 °F  
Max Temperature 50 °F 60 °F 83 °F (2009)
Min Temperature 35 °F 41 °F 12 °F (1911)
Degree Days  
Heating Degree Days 22 15  
Month to date heating degree days 45  
Since 1 July heating degree days 681  
Cooling Degree Days 0 0  
Month to date cooling degree days 0  
Year to date cooling degree days 0  
Moisture  
Dew Point 33 °F    
Average Humidity 68    
Maximum Humidity 87    
Minimum Humidity 47    
Precipitation  
Precipitation 0.00 in 0.10 in 2.52 in (1932)
Month to date precipitation 0.29  
Year to date precipitation 0.29  
Sea Level Pressure  
Sea Level Pressure 30.39 in    
Wind  
Wind Speed 5 mph (North)    
Max Wind Speed 12 mph    
Max Gust Speed 17 mph    
Visibility 8 miles    
Events Rain    
T = Trace of Precipitation, MM = Missing Value Source: NWS Daily Summary

Daily Weather History Graph

Daily Weather History Graph

Search for Another Location

Airport or City:

Trip Planner

Search our weather history database for the weather conditions in past years. The results will help you decide how hot, cold, wet, or windy it might be!

Date:

Astronomy

Jan. 03, 2013 Rise Set
Actual Time 7:22 AM CST 5:38 PM CST
Civil Twilight 6:56 AM CST 6:04 PM CST
Nautical Twilight 6:26 AM CST 6:34 PM CST
Astronomical Twilight 5:57 AM CST 7:03 PM CST
Moon 11:44 PM CST (1/3) 11:02 AM CST (1/3)
Length of Visible Light 11h 08m
Length of Day
10h 15m
Waning Gibbous, 65% of the Moon is Illuminated
Jan 3
Waning Gibbous
Jan 4
Last Quarter
Jan 11
New
Jan 18
First Quarter
Jan 26
Full

Hourly Weather History & Observations

Time (CST) Temp. Windchill Dew Point Humidity Pressure Visibility Wind Dir Wind Speed Gust Speed Precip Events Conditions
12:15 AM 41.0 °F 38.0 °F 33.8 °F 76% 30.33 in 7.0 mi North 4.6 mph - N/A   Clear
12:35 AM 39.2 °F 35.9 °F 33.8 °F 81% 30.33 in 7.0 mi North 4.6 mph - N/A   Clear
12:55 AM 37.4 °F 32.8 °F 33.8 °F 87% 30.33 in 7.0 mi North 5.8 mph - N/A   Clear
1:15 AM 37.4 °F 32.8 °F 33.8 °F 87% 30.33 in 7.0 mi North 5.8 mph - N/A   Clear
1:35 AM 37.4 °F 33.8 °F 32.0 °F 81% 30.33 in 7.0 mi North 4.6 mph - N/A   Clear
1:55 AM 37.4 °F 34.9 °F 32.0 °F 81% 30.34 in 7.0 mi North 3.5 mph - N/A   Clear
2:15 AM 37.4 °F - 32.0 °F 81% 30.35 in 7.0 mi Calm Calm - N/A   Mostly Cloudy
2:35 AM 37.4 °F - 32.0 °F 81% 30.35 in 7.0 mi Calm Calm - N/A   Overcast
2:55 AM 37.4 °F 32.8 °F 32.0 °F 81% 30.34 in 5.0 mi North 5.8 mph - N/A   Haze
3:15 AM 35.6 °F 32.8 °F 32.0 °F 87% 30.35 in 5.0 mi North 3.5 mph - N/A   Haze
3:35 AM 35.6 °F - 32.0 °F 87% 30.35 in 5.0 mi Calm Calm - N/A   Haze
3:55 AM 35.6 °F - 32.0 °F 87% 30.36 in 5.0 mi Calm Calm - N/A   Scattered Clouds
4:15 AM 35.6 °F 32.8 °F 32.0 °F 87% 30.36 in 5.0 mi NNW 3.5 mph - N/A   Haze
4:35 AM 35.6 °F 32.8 °F 32.0 °F 87% 30.35 in 5.0 mi North 3.5 mph - N/A   Overcast
4:55 AM 37.4 °F 34.9 °F 32.0 °F 81% 30.35 in 7.0 mi NNE 3.5 mph - N/A   Overcast
5:15 AM 37.4 °F 32.1 °F 32.0 °F 81% 30.35 in 7.0 mi North 6.9 mph - N/A   Overcast
5:35 AM 37.4 °F 33.8 °F 32.0 °F 81% 30.36 in 7.0 mi North 4.6 mph - N/A   Overcast
5:55 AM 37.4 °F 33.8 °F 32.0 °F 81% 30.37 in 7.0 mi North 4.6 mph - N/A   Overcast
6:15 AM 37.4 °F 32.8 °F 32.0 °F 81% 30.38 in 7.0 mi North 5.8 mph - N/A   Overcast
6:35 AM 37.4 °F 34.9 °F 32.0 °F 81% 30.39 in 5.0 mi NNW 3.5 mph - N/A   Haze
6:55 AM 37.4 °F 34.9 °F 32.0 °F 81% 30.40 in 5.0 mi NW 3.5 mph - N/A   Haze
7:15 AM 37.4 °F 34.9 °F 32.0 °F 81% 30.40 in 7.0 mi North 3.5 mph - N/A   Overcast
7:35 AM 37.4 °F 33.8 °F 32.0 °F 81% 30.41 in 7.0 mi North 4.6 mph - N/A   Overcast
7:55 AM 37.4 °F 32.1 °F 32.0 °F 81% 30.42 in 5.0 mi North 6.9 mph - N/A   Haze
8:15 AM 37.4 °F 30.8 °F 32.0 °F 81% 30.42 in 5.0 mi North 9.2 mph - N/A   Haze
8:35 AM 37.4 °F 32.1 °F 32.0 °F 81% 30.42 in 5.0 mi North 6.9 mph - N/A   Haze
8:55 AM 39.2 °F 35.0 °F 32.0 °F 75% 30.43 in 5.0 mi NNE 5.8 mph - N/A   Haze
9:35 AM 41.0 °F 38.0 °F 32.0 °F 70% 30.45 in 7.0 mi NNE 4.6 mph - N/A   Overcast
9:55 AM 42.8 °F 38.0 °F 32.0 °F 66% 30.44 in 10.0 mi North 8.1 mph - N/A   Mostly Cloudy
10:15 AM 44.6 °F 41.4 °F 32.0 °F 61% 30.44 in 10.0 mi NNE 5.8 mph - N/A   Scattered Clouds
10:35 AM 44.6 °F 39.7 °F 32.0 °F 61% 30.43 in 10.0 mi NNE 9.2 mph 17.3 mph N/A   Scattered Clouds
10:55 AM 44.6 °F 40.2 °F 32.0 °F 61% 30.43 in 10.0 mi NNE 8.1 mph 16.1 mph N/A   Scattered Clouds
11:15 AM 46.4 °F 41.9 °F 32.0 °F 57% 30.42 in 10.0 mi NE 9.2 mph - N/A   Clear
11:35 AM 46.4 °F 42.4 °F 32.0 °F 57% 30.41 in 10.0 mi NNE 8.1 mph - N/A   Scattered Clouds
11:55 AM 48.2 °F - 32.0 °F 54% 30.41 in 10.0 mi NNE 10.4 mph 16.1 mph N/A   Scattered Clouds
12:15 PM 50.0 °F - 32.0 °F 50% 30.40 in 10.0 mi North 9.2 mph - N/A   Overcast
12:35 PM 50.0 °F - 32.0 °F 50% 30.38 in 10.0 mi NNE 8.1 mph - N/A   Overcast
12:55 PM 50.0 °F - 32.0 °F 50% 30.38 in 10.0 mi North 6.9 mph - N/A   Overcast
1:15 PM 50.0 °F - 32.0 °F 50% 30.38 in 10.0 mi North 10.4 mph - N/A   Overcast
1:35 PM 50.0 °F - 32.0 °F 50% 30.38 in 10.0 mi North 10.4 mph - N/A   Overcast
1:55 PM 50.0 °F - 30.2 °F 47% 30.37 in 10.0 mi North 10.4 mph 16.1 mph N/A   Overcast
2:15 PM 50.0 °F - 32.0 °F 50% 30.37 in 10.0 mi North 11.5 mph 16.1 mph N/A   Light Drizzle
2:35 PM 50.0 °F - 33.8 °F 54% 30.37 in 10.0 mi North 11.5 mph 16.1 mph N/A Rain Light Rain
2:55 PM 50.0 °F - 32.0 °F 50% 30.37 in 10.0 mi NNW 11.5 mph - N/A   Mostly Cloudy
3:15 PM 50.0 °F - 32.0 °F 50% 30.38 in 10.0 mi NNW 10.4 mph - N/A   Overcast
3:35 PM 50.0 °F - 32.0 °F 50% 30.38 in 10.0 mi North 9.2 mph - N/A   Overcast
3:55 PM 50.0 °F - 32.0 °F 50% 30.38 in 10.0 mi North 6.9 mph - N/A   Overcast
4:15 PM 50.0 °F - 32.0 °F 50% 30.38 in 10.0 mi NNW 10.4 mph - N/A   Overcast
4:35 PM 50.0 °F - 32.0 °F 50% 30.39 in 10.0 mi NNW 9.2 mph - N/A   Overcast
4:55 PM 50.0 °F - 33.8 °F 54% 30.39 in 10.0 mi NNW 5.8 mph - N/A   Overcast
5:15 PM 48.2 °F - 33.8 °F 58% 30.39 in 10.0 mi North 6.9 mph - N/A Rain Light Rain
5:35 PM 48.2 °F - 35.6 °F 62% 30.40 in 10.0 mi NNW 8.1 mph - N/A   Overcast
5:55 PM 46.4 °F 42.9 °F 35.6 °F 66% 30.40 in 10.0 mi NNW 6.9 mph - N/A   Overcast
6:15 PM 46.4 °F 42.9 °F 35.6 °F 66% 30.41 in 10.0 mi NNW 6.9 mph - N/A   Overcast
6:35 PM 46.4 °F 44.3 °F 35.6 °F 66% 30.41 in 10.0 mi NNW 4.6 mph - N/A   Overcast
6:55 PM 46.4 °F 44.3 °F 35.6 °F 66% 30.41 in 10.0 mi North 4.6 mph - N/A   Overcast
7:15 PM 46.4 °F 45.2 °F 35.6 °F 66% 30.42 in 10.0 mi NNW 3.5 mph - N/A   Overcast
7:35 PM 46.4 °F 45.2 °F 35.6 °F 66% 30.42 in 10.0 mi North 3.5 mph - N/A   Overcast
7:55 PM 46.4 °F 44.3 °F 35.6 °F 66% 30.43 in 10.0 mi NNW 4.6 mph - N/A   Overcast
8:15 PM 46.4 °F 43.5 °F 35.6 °F 66% 30.42 in 10.0 mi North 5.8 mph - N/A   Overcast
8:35 PM 46.4 °F 43.5 °F 35.6 °F 66% 30.42 in 10.0 mi North 5.8 mph - N/A   Overcast
8:55 PM 46.4 °F 45.2 °F 35.6 °F 66% 30.43 in 10.0 mi North 3.5 mph - N/A   Overcast
9:15 PM 46.4 °F 45.2 °F 35.6 °F 66% 30.43 in 10.0 mi North 3.5 mph - N/A   Overcast
9:35 PM 46.4 °F 44.3 °F 35.6 °F 66% 30.42 in 10.0 mi North 4.6 mph - N/A   Overcast
9:55 PM 46.4 °F 45.2 °F 33.8 °F 62% 30.41 in 10.0 mi North 3.5 mph - N/A   Overcast
10:15 PM 46.4 °F 45.2 °F 33.8 °F 62% 30.41 in 10.0 mi NNE 3.5 mph - N/A   Overcast
10:35 PM 46.4 °F - 33.8 °F 62% 30.40 in 10.0 mi Calm Calm - N/A   Overcast
10:55 PM 46.4 °F - 35.6 °F 66% 30.41 in 10.0 mi Calm Calm - N/A   Overcast
11:15 PM 46.4 °F 45.2 °F 35.6 °F 66% 30.41 in 10.0 mi North 3.5 mph - N/A   Overcast
11:35 PM 46.4 °F 44.3 °F 35.6 °F 66% 30.41 in 10.0 mi North 4.6 mph - N/A   Overcast
11:55 PM 46.4 °F 44.3 °F 35.6 °F 66% 30.41 in 10.0 mi North 4.6 mph - N/A   Overcast